Time,TemperatureF,DewpointF,PressureIn,WindDirection,WindDirectionDegrees,WindSpeedMPH,WindSpeedGustMPH,Humidity,HourlyPrecipIn,Conditions,Clouds,dailyrainin,SoftwareType,DateUTC
2013-03-08 00:01:00,31.0,20.0,30.02,North,-999,-999.0,-999.0,63,-99.99,,,-99.99,,2013-03-08 07:01:00,
2013-03-08 00:11:00,32.0,20.0,30.00,North,-999,-999.0,-999.0,61,-99.99,,,-99.99,,2013-03-08 07:11:00,
2013-03-08 00:21:00,32.0,20.0,30.00,North,-999,-999.0,-999.0,61,-99.99,,,-99.99,,2013-03-08 07:21:00,
2013-03-08 00:31:00,32.0,20.0,30.00,North,-999,-999.0,-999.0,61,-99.99,,,-99.99,,2013-03-08 07:31:00,
2013-03-08 00:42:00,32.0,20.0,30.00,North,-999,-999.0,-999.0,61,-99.99,,,-99.99,,2013-03-08 07:42:00,
2013-03-08 00:52:00,33.0,20.0,30.00,North,-999,-999.0,-999.0,59,-99.99,,,-99.99,,2013-03-08 07:52:00,
2013-03-08 01:01:00,33.0,20.0,30.00,North,-999,-999.0,-999.0,59,-99.99,,,-99.99,,2013-03-08 08:01:00,
2013-03-08 01:11:00,32.0,21.0,29.99,North,-999,-999.0,-999.0,61,-99.99,,,-99.99,,2013-03-08 08:11:00,
2013-03-08 01:21:00,32.0,21.0,29.99,North,-999,-999.0,-999.0,61,-99.99,,,-99.99,,2013-03-08 08:21:00,
2013-03-08 01:32:00,32.0,21.0,29.99,North,-999,-999.0,-999.0,61,-99.99,,,-99.99,,2013-03-08 08:32:00,
2013-03-08 01:42:00,32.0,21.0,29.99,North,-999,-999.0,-999.0,61,-99.99,,,-99.99,,2013-03-08 08:42:00,
2013-03-08 01:52:00,31.0,21.0,29.98,North,-999,-999.0,-999.0,65,-99.99,,,-99.99,,2013-03-08 08:52:00,
2013-03-08 02:03:00,31.0,21.0,29.98,North,-999,-999.0,-999.0,65,-99.99,,,-99.99,,2013-03-08 09:03:00,
2013-03-08 02:11:00,31.0,21.0,29.98,North,-999,-999.0,-999.0,65,-99.99,,,-99.99,,2013-03-08 09:11:00,
2013-03-08 02:21:00,33.0,19.0,29.97,North,-999,-999.0,-999.0,56,-99.99,,,-99.99,,2013-03-08 09:21:00,
2013-03-08 02:32:00,33.0,19.0,29.97,North,-999,-999.0,-999.0,56,-99.99,,,-99.99,,2013-03-08 09:32:00,
2013-03-08 02:42:00,33.0,19.0,29.97,North,-999,-999.0,-999.0,56,-99.99,,,-99.99,,2013-03-08 09:42:00,
2013-03-08 02:52:00,31.0,18.0,29.96,North,-999,-999.0,-999.0,59,-99.99,,,-99.99,,2013-03-08 09:52:00,
2013-03-08 03:01:00,31.0,18.0,29.96,North,-999,-999.0,-999.0,59,-99.99,,,-99.99,,2013-03-08 10:01:00,
2013-03-08 03:11:00,29.0,17.0,29.95,North,-999,-999.0,-999.0,60,-99.99,,,-99.99,,2013-03-08 10:11:00,
2013-03-08 03:21:00,29.0,17.0,29.95,North,-999,-999.0,-999.0,60,-99.99,,,-99.99,,2013-03-08 10:21:00,
2013-03-08 03:32:00,29.0,17.0,29.95,North,-999,-999.0,-999.0,60,-99.99,,,-99.99,,2013-03-08 10:32:00,
2013-03-08 03:42:00,29.0,17.0,29.95,North,-999,-999.0,-999.0,60,-99.99,,,-99.99,,2013-03-08 10:42:00,
2013-03-08 03:51:00,26.0,15.0,29.94,North,-999,-999.0,-999.0,62,-99.99,,,-99.99,,2013-03-08 10:51:00,
2013-03-08 04:01:00,26.0,15.0,29.94,North,-999,-999.0,-999.0,62,-99.99,,,-99.99,,2013-03-08 11:01:00,
2013-03-08 04:11:00,26.0,15.0,29.94,North,-999,-999.0,-999.0,62,-99.99,,,-99.99,,2013-03-08 11:11:00,
2013-03-08 04:21:00,29.0,14.0,29.93,North,-999,-999.0,-999.0,52,-99.99,,,-99.99,,2013-03-08 11:21:00,
2013-03-08 04:32:00,29.0,14.0,29.93,North,-999,-999.0,-999.0,52,-99.99,,,-99.99,,2013-03-08 11:32:00,
2013-03-08 04:42:00,25.0,14.0,29.94,North,-999,-999.0,-999.0,62,-99.99,,,-99.99,,2013-03-08 11:42:00,
2013-03-08 04:52:00,25.0,14.0,29.94,North,-999,-999.0,-999.0,62,-99.99,,,-99.99,,2013-03-08 11:52:00,
2013-03-08 05:01:00,25.0,14.0,29.94,North,-999,-999.0,-999.0,62,-99.99,,,-99.99,,2013-03-08 12:01:00,
2013-03-08 05:11:00,26.0,16.0,29.94,North,-999,-999.0,-999.0,64,-99.99,,,-99.99,,2013-03-08 12:11:00,
2013-03-08 05:22:00,26.0,16.0,29.94,North,-999,-999.0,-999.0,64,-99.99,,,-99.99,,2013-03-08 12:22:00,
2013-03-08 05:32:00,26.0,16.0,29.94,North,-999,-999.0,-999.0,64,-99.99,,,-99.99,,2013-03-08 12:32:00,
2013-03-08 05:43:00,28.0,20.0,29.94,North,-999,-999.0,-999.0,72,-99.99,,,-99.99,,2013-03-08 12:43:00,
2013-03-08 05:52:00,28.0,20.0,29.94,North,-999,-999.0,-999.0,72,-99.99,,,-99.99,,2013-03-08 12:52:00,
2013-03-08 06:01:00,28.0,20.0,29.94,North,-999,-999.0,-999.0,72,-99.99,,,-99.99,,2013-03-08 13:01:00,
2013-03-08 06:11:00,29.0,22.0,29.95,North,-999,-999.0,-999.0,74,-99.99,,,-99.99,,2013-03-08 13:11:00,
2013-03-08 06:21:00,29.0,22.0,29.95,North,-999,-999.0,-999.0,74,-99.99,,,-99.99,,2013-03-08 13:21:00,
2013-03-08 06:32:00,29.0,22.0,29.95,North,-999,-999.0,-999.0,74,-99.99,,,-99.99,,2013-03-08 13:32:00,
2013-03-08 06:42:00,27.0,16.0,29.94,North,-999,-999.0,-999.0,62,-99.99,,,-99.99,,2013-03-08 13:42:00,
2013-03-08 06:52:00,27.0,16.0,29.94,North,-999,-999.0,-999.0,62,-99.99,,,-99.99,,2013-03-08 13:52:00,
2013-03-08 07:02:00,27.0,16.0,29.94,North,-999,-999.0,-999.0,62,-99.99,,,-99.99,,2013-03-08 14:02:00,
2013-03-08 07:11:00,26.0,15.0,29.94,North,-999,-999.0,-999.0,60,-99.99,,,-99.99,,2013-03-08 14:11:00,
2013-03-08 07:22:00,26.0,15.0,29.94,North,-999,-999.0,-999.0,60,-99.99,,,-99.99,,2013-03-08 14:22:00,
2013-03-08 07:32:00,26.0,15.0,29.94,North,-999,-999.0,-999.0,60,-99.99,,,-99.99,,2013-03-08 14:32:00,
2013-03-08 07:42:00,28.0,17.0,29.94,North,-999,-999.0,-999.0,63,-99.99,,,-99.99,,2013-03-08 14:42:00,
2013-03-08 07:52:00,28.0,17.0,29.94,North,-999,-999.0,-999.0,63,-99.99,,,-99.99,,2013-03-08 14:52:00,
2013-03-08 08:03:00,28.0,17.0,29.94,North,-999,-999.0,-999.0,63,-99.99,,,-99.99,,2013-03-08 15:03:00,
2013-03-08 08:11:00,30.0,20.0,29.94,North,-999,-999.0,-999.0,65,-99.99,,,-99.99,,2013-03-08 15:11:00,
2013-03-08 08:22:00,30.0,20.0,29.94,North,-999,-999.0,-999.0,65,-99.99,,,-99.99,,2013-03-08 15:22:00,
2013-03-08 08:32:00,30.0,20.0,29.94,North,-999,-999.0,-999.0,65,-99.99,,,-99.99,,2013-03-08 15:32:00,
2013-03-08 08:42:00,33.0,18.0,29.92,North,-999,-999.0,-999.0,52,-99.99,,,-99.99,,2013-03-08 15:42:00,
2013-03-08 08:52:00,33.0,18.0,29.92,North,-999,-999.0,-999.0,52,-99.99,,,-99.99,,2013-03-08 15:52:00,
2013-03-08 09:01:00,33.0,18.0,29.92,North,-999,-999.0,-999.0,52,-99.99,,,-99.99,,2013-03-08 16:01:00,
2013-03-08 09:11:00,35.0,16.0,29.92,North,-999,-999.0,-999.0,46,-99.99,,,-99.99,,2013-03-08 16:11:00,
2013-03-08 09:21:00,35.0,16.0,29.92,North,-999,-999.0,-999.0,46,-99.99,,,-99.99,,2013-03-08 16:21:00,
2013-03-08 09:32:00,35.0,16.0,29.92,North,-999,-999.0,-999.0,46,-99.99,,,-99.99,,2013-03-08 16:32:00,
2013-03-08 09:42:00,36.0,19.0,29.91,North,-999,-999.0,-999.0,49,-99.99,,,-99.99,,2013-03-08 16:42:00,
2013-03-08 09:52:00,36.0,19.0,29.91,North,-999,-999.0,-999.0,49,-99.99,,,-99.99,,2013-03-08 16:52:00,
2013-03-08 10:02:00,36.0,19.0,29.91,North,-999,-999.0,-999.0,49,-99.99,,,-99.99,,2013-03-08 17:02:00,
2013-03-08 10:11:00,33.0,23.0,29.90,North,-999,-999.0,-999.0,66,-99.99,,,-99.99,,2013-03-08 17:11:00,
2013-03-08 10:21:00,33.0,23.0,29.90,North,-999,-999.0,-999.0,66,-99.99,,,-99.99,,2013-03-08 17:21:00,
2013-03-08 10:32:00,33.0,23.0,29.90,North,-999,-999.0,-999.0,66,-99.99,,,-99.99,,2013-03-08 17:32:00,
2013-03-08 10:42:00,38.0,19.0,29.89,North,-999,-999.0,-999.0,45,-99.99,,,-99.99,,2013-03-08 17:42:00,
2013-03-08 10:52:00,38.0,19.0,29.89,North,-999,-999.0,-999.0,45,-99.99,,,-99.99,,2013-03-08 17:52:00,
2013-03-08 11:02:00,38.0,19.0,29.89,North,-999,-999.0,-999.0,45,-99.99,,,-99.99,,2013-03-08 18:02:00,
2013-03-08 11:11:00,38.0,19.0,29.89,North,-999,-999.0,-999.0,45,-99.99,,,-99.99,,2013-03-08 18:11:00,
2013-03-08 11:21:00,42.0,21.0,29.88,North,-999,-999.0,-999.0,43,-99.99,,,-99.99,,2013-03-08 18:21:00,
2013-03-08 11:32:00,42.0,21.0,29.88,North,-999,-999.0,-999.0,43,-99.99,,,-99.99,,2013-03-08 18:32:00,
2013-03-08 11:42:00,44.0,15.0,29.87,North,-999,-999.0,-999.0,31,-99.99,,,-99.99,,2013-03-08 18:42:00,
2013-03-08 11:52:00,44.0,15.0,29.87,North,-999,-999.0,-999.0,31,-99.99,,,-99.99,,2013-03-08 18:52:00,
2013-03-08 12:01:00,44.0,15.0,29.87,North,-999,-999.0,-999.0,31,-99.99,,,-99.99,,2013-03-08 19:01:00,
2013-03-08 12:11:00,47.0,13.0,29.85,North,-999,-999.0,-999.0,25,-99.99,,,-99.99,,2013-03-08 19:11:00,
2013-03-08 12:21:00,47.0,13.0,29.85,North,-999,-999.0,-999.0,25,-99.99,,,-99.99,,2013-03-08 19:21:00,
2013-03-08 12:32:00,47.0,13.0,29.85,North,-999,-999.0,-999.0,25,-99.99,,,-99.99,,2013-03-08 19:32:00,
2013-03-08 12:42:00,47.0,13.0,29.85,North,-999,-999.0,-999.0,25,-99.99,,,-99.99,,2013-03-08 19:42:00,
2013-03-08 12:52:00,47.0,12.0,29.83,North,-999,-999.0,-999.0,23,-99.99,,,-99.99,,2013-03-08 19:52:00,
2013-03-08 13:01:00,47.0,12.0,29.83,North,-999,-999.0,-999.0,23,-99.99,,,-99.99,,2013-03-08 20:01:00,
2013-03-08 13:11:00,47.0,12.0,29.83,North,-999,-999.0,-999.0,23,-99.99,,,-99.99,,2013-03-08 20:11:00,
2013-03-08 13:21:00,48.0,11.0,29.81,North,-999,-999.0,-999.0,21,-99.99,,,-99.99,,2013-03-08 20:21:00,
2013-03-08 13:32:00,48.0,11.0,29.81,North,-999,-999.0,-999.0,21,-99.99,,,-99.99,,2013-03-08 20:32:00,
2013-03-08 13:42:00,48.0,11.0,29.80,North,-999,-999.0,-999.0,22,-99.99,,,-99.99,,2013-03-08 20:42:00,
2013-03-08 13:52:00,48.0,11.0,29.80,North,-999,-999.0,-999.0,22,-99.99,,,-99.99,,2013-03-08 20:52:00,
2013-03-08 14:02:00,48.0,11.0,29.80,North,-999,-999.0,-999.0,22,-99.99,,,-99.99,,2013-03-08 21:02:00,
2013-03-08 14:11:00,48.0,11.0,29.80,North,-999,-999.0,-999.0,22,-99.99,,,-99.99,,2013-03-08 21:11:00,
2013-03-08 14:21:00,48.0,12.0,29.78,North,-999,-999.0,-999.0,22,-99.99,,,-99.99,,2013-03-08 21:21:00,
2013-03-08 14:33:00,48.0,12.0,29.78,North,-999,-999.0,-999.0,22,-99.99,,,-99.99,,2013-03-08 21:33:00,
2013-03-08 14:42:00,48.0,12.0,29.78,North,-999,-999.0,-999.0,22,-99.99,,,-99.99,,2013-03-08 21:42:00,
2013-03-08 14:52:00,49.0,17.0,29.78,North,-999,-999.0,-999.0,27,-99.99,,,-99.99,,2013-03-08 21:52:00,
2013-03-08 15:01:00,49.0,17.0,29.78,North,-999,-999.0,-999.0,27,-99.99,,,-99.99,,2013-03-08 22:01:00,
2013-03-08 15:11:00,48.0,16.0,29.77,North,-999,-999.0,-999.0,27,-99.99,,,-99.99,,2013-03-08 22:11:00,
2013-03-08 15:22:00,48.0,16.0,29.77,North,-999,-999.0,-999.0,27,-99.99,,,-99.99,,2013-03-08 22:22:00,
2013-03-08 15:32:00,48.0,16.0,29.77,North,-999,-999.0,-999.0,27,-99.99,,,-99.99,,2013-03-08 22:32:00,
2013-03-08 15:42:00,46.0,16.0,29.77,North,-999,-999.0,-999.0,29,-99.99,,,-99.99,,2013-03-08 22:42:00,
2013-03-08 15:52:00,46.0,16.0,29.77,North,-999,-999.0,-999.0,29,-99.99,,,-99.99,,2013-03-08 22:52:00,
2013-03-08 16:01:00,46.0,16.0,29.77,North,-999,-999.0,-999.0,29,-99.99,,,-99.99,,2013-03-08 23:01:00,
2013-03-08 16:12:00,46.0,18.0,29.77,North,-999,-999.0,-999.0,33,-99.99,,,-99.99,,2013-03-08 23:12:00,
2013-03-08 16:21:00,46.0,18.0,29.77,North,-999,-999.0,-999.0,33,-99.99,,,-99.99,,2013-03-08 23:21:00,
2013-03-08 16:30:00,43.0,22.0,29.78,North,-999,-999.0,-999.0,44,-99.99,,,-99.99,,2013-03-08 23:30:00,
2013-03-08 16:32:00,46.0,18.0,29.77,North,-999,-999.0,-999.0,33,-99.99,,,-99.99,,2013-03-08 23:32:00,
2013-03-08 16:42:00,43.0,22.0,29.78,North,-999,-999.0,-999.0,44,-99.99,,,-99.99,,2013-03-08 23:42:00,
2013-03-08 16:52:00,43.0,22.0,29.78,North,-999,-999.0,-999.0,44,-99.99,,,-99.99,,2013-03-08 23:52:00,
2013-03-08 17:02:00,43.0,22.0,29.78,North,-999,-999.0,-999.0,44,-99.99,,,-99.99,,2013-03-09 00:02:00,
2013-03-08 17:11:00,43.0,22.0,29.78,North,-999,-999.0,-999.0,44,-99.99,,,-99.99,,2013-03-09 00:11:00,
2013-03-08 17:22:00,43.0,22.0,29.78,North,-999,-999.0,-999.0,44,-99.99,,,-99.99,,2013-03-09 00:22:00,
2013-03-08 17:42:00,41.0,23.0,29.77,North,-999,-999.0,-999.0,48,-99.99,,,-99.99,,2013-03-09 00:42:00,
2013-03-08 17:52:00,41.0,23.0,29.77,North,-999,-999.0,-999.0,48,-99.99,,,-99.99,,2013-03-09 00:52:00,
2013-03-08 18:01:00,41.0,23.0,29.77,North,-999,-999.0,-999.0,48,-99.99,,,-99.99,,2013-03-09 01:01:00,
2013-03-08 18:12:00,40.0,23.0,29.77,North,-999,-999.0,-999.0,49,-99.99,,,-99.99,,2013-03-09 01:12:00,
2013-03-08 18:21:00,40.0,23.0,29.77,North,-999,-999.0,-999.0,49,-99.99,,,-99.99,,2013-03-09 01:21:00,
2013-03-08 18:32:00,40.0,23.0,29.77,North,-999,-999.0,-999.0,49,-99.99,,,-99.99,,2013-03-09 01:32:00,
2013-03-08 18:42:00,40.0,23.0,29.77,North,-999,-999.0,-999.0,49,-99.99,,,-99.99,,2013-03-09 01:42:00,
2013-03-08 18:51:00,36.0,22.0,29.77,North,-999,-999.0,-999.0,56,-99.99,,,-99.99,,2013-03-09 01:51:00,
2013-03-08 19:01:00,36.0,22.0,29.77,North,-999,-999.0,-999.0,56,-99.99,,,-99.99,,2013-03-09 02:01:00,
2013-03-08 19:11:00,35.0,25.0,29.77,North,-999,-999.0,-999.0,65,-99.99,,,-99.99,,2013-03-09 02:11:00,
2013-03-08 19:21:00,35.0,25.0,29.77,North,-999,-999.0,-999.0,65,-99.99,,,-99.99,,2013-03-09 02:21:00,
2013-03-08 19:31:00,35.0,25.0,29.77,North,-999,-999.0,-999.0,65,-99.99,,,-99.99,,2013-03-09 02:31:00,
2013-03-08 19:41:00,35.0,25.0,29.77,North,-999,-999.0,-999.0,66,-99.99,,,-99.99,,2013-03-09 02:41:00,
2013-03-08 19:51:00,35.0,25.0,29.77,North,-999,-999.0,-999.0,66,-99.99,,,-99.99,,2013-03-09 02:51:00,
2013-03-08 20:01:00,35.0,25.0,29.77,North,-999,-999.0,-999.0,66,-99.99,,,-99.99,,2013-03-09 03:01:00,
2013-03-08 20:11:00,33.0,25.0,29.75,North,-999,-999.0,-999.0,72,-99.99,,,-99.99,,2013-03-09 03:11:00,
2013-03-08 20:21:00,33.0,25.0,29.75,North,-999,-999.0,-999.0,72,-99.99,,,-99.99,,2013-03-09 03:21:00,
2013-03-08 20:32:00,33.0,25.0,29.75,North,-999,-999.0,-999.0,72,-99.99,,,-99.99,,2013-03-09 03:32:00,
2013-03-08 20:42:00,32.0,25.0,29.75,North,-999,-999.0,-999.0,76,-99.99,,,-99.99,,2013-03-09 03:42:00,
2013-03-08 20:52:00,32.0,25.0,29.75,North,-999,-999.0,-999.0,76,-99.99,,,-99.99,,2013-03-09 03:52:00,
2013-03-08 21:01:00,32.0,25.0,29.75,North,-999,-999.0,-999.0,76,-99.99,,,-99.99,,2013-03-09 04:01:00,
2013-03-08 21:11:00,32.0,25.0,29.75,North,-999,-999.0,-999.0,76,-99.99,,,-99.99,,2013-03-09 04:11:00,
2013-03-08 21:22:00,31.0,25.0,29.75,North,-999,-999.0,-999.0,79,-99.99,,,-99.99,,2013-03-09 04:22:00,
2013-03-08 21:31:00,31.0,25.0,29.75,North,-999,-999.0,-999.0,79,-99.99,,,-99.99,,2013-03-09 04:31:00,
2013-03-08 21:42:00,30.0,25.0,29.75,North,-999,-999.0,-999.0,81,-99.99,,,-99.99,,2013-03-09 04:42:00,
2013-03-08 21:52:00,30.0,25.0,29.75,North,-999,-999.0,-999.0,81,-99.99,,,-99.99,,2013-03-09 04:52:00,
2013-03-08 22:02:00,30.0,25.0,29.75,North,-999,-999.0,-999.0,81,-99.99,,,-99.99,,2013-03-09 05:02:00,
2013-03-08 22:12:00,30.0,25.0,29.74,North,-999,-999.0,-999.0,83,-99.99,,,-99.99,,2013-03-09 05:12:00,
2013-03-08 22:22:00,30.0,25.0,29.74,North,-999,-999.0,-999.0,83,-99.99,,,-99.99,,2013-03-09 05:22:00,
2013-03-08 22:32:00,30.0,25.0,29.74,North,-999,-999.0,-999.0,83,-99.99,,,-99.99,,2013-03-09 05:32:00,
2013-03-08 22:43:00,29.0,25.0,29.73,North,-999,-999.0,-999.0,84,-99.99,,,-99.99,,2013-03-09 05:43:00,
2013-03-08 22:53:00,29.0,25.0,29.73,North,-999,-999.0,-999.0,84,-99.99,,,-99.99,,2013-03-09 05:53:00,
2013-03-08 23:01:00,29.0,25.0,29.73,North,-999,-999.0,-999.0,84,-99.99,,,-99.99,,2013-03-09 06:01:00,
2013-03-08 23:11:00,29.0,25.0,29.73,North,-999,-999.0,-999.0,84,-99.99,,,-99.99,,2013-03-09 06:11:00,
2013-03-08 23:22:00,29.0,25.0,29.73,North,-999,-999.0,-999.0,84,-99.99,,,-99.99,,2013-03-09 06:22:00,
2013-03-08 23:31:00,29.0,25.0,29.73,North,-999,-999.0,-999.0,84,-99.99,,,-99.99,,2013-03-09 06:31:00,
2013-03-08 23:42:00,29.0,25.0,29.73,North,-999,-999.0,-999.0,84,-99.99,,,-99.99,,2013-03-09 06:42:00,
2013-03-08 23:51:00,28.0,24.0,29.72,North,-999,-999.0,-999.0,84,-99.99,,,-99.99,,2013-03-09 06:51:00,